DELTA 1 DEB, 2977

Orbit data source: Space-Track

DELTA 1 DEB, 2977 is space debris in SSO originally from a launch on Thu, 20 Apr 1967 UTC launched from the Air Force Western Test Range (AFWTR). Debris objects in space refer to the collection of defunct objects orbiting the Earth. Examples of debris include non-operational satellites, rocket bodies, and fragments generated from explosions, collisions, or faulty payload assembly.

Loading next visibility...
Identifier
2977, 1967-036D
Orbit
SSO
Country
Flag of USUS
Related business
Manufacturer
Unknown
Mission
Spacecraft
Bus & Motor
Unknown
Mass
Unknown
Launch date (UTC)
1967-04-20 (59 years ago)
Launch vehicle
Unknown
Launch site
Air Force Western Test Range (AFWTR)
Object type
Payload
Rocket body
Debris
Shape & HBR
Unknown shape, 0.1 m
Radar Cross Section
Small (<0.1 m²)

Expand to show TLE details & history
Last TLE update: 2 days ago

TLE from 2 days ago
0 DELTA 1 DEB
1 02977U 67036D   25291.86525110 -.00000020  00000-0  14369-3 0  9993
2 02977 101.5795 254.7421 0060038  18.9853   8.8481 12.56856946683076
Epoch: 2025-10-18T20:45Z
TLE epoch observation values (Epoch: 2025-10-18T20:45:57.695Z)
Latitude
27.3624°
Longitude
-90.39514°
Altitude
1,392.656 km
Speed
7.187 km/s
True Right ascension
16h 34m 44s
True Declination
27° 14' 01"
Sunlit
Object was in daylight at epoch
Visualization orbit readout
Latitude
Unknown
Longitude
Unknown
Altitude
Unknown
Speed
Unknown
Apparent Right ascension
Unknown
Apparent Declination
Unknown
Sunlit
N/A
Visualization observer readout
Local Sidereal Time
22:48:56
Azimuth
Unknown
Elevation
Unknown
Doppler factor
Unknown
Orbital elements
Apogee altitude
1,480.372 km
Perigee altitude
1,386.573 km
Semi-major axis
7,811.609 km
Eccentricity
0.006
Inclination
101.5795°
RAAN
254.7421°
Arg. of periapsis
18.9853°
True anomaly
8.95471°
Mean anomaly
8.8481°
Eccentric anomaly
8.90133°
Mean motion
3.14364 °/min
Orbital period
114.52 mins
BSTAR
0.00014369
Loading maneuver chart data...
Computing Atmospheric mass density...
Loading historical data...
Loading historical data...
Loading historical data...
Loading historical data...
Loading historical data...
Loading historical data...
Loading historical data...
Other satellites on launch #36 in the year 1967 (1967-04-20 UTC)

Documentation

Showing up to 5 results
|